This is the latest recevied weather packets stored in our database for station/object KQ4PPF. If no packets are shown the sender has not sent any weather packets the latest 1 day(s).
| Time | Temp. | Humidity | Pressure | Rain* | Wind** | Luminosity | Snow |
|---|---|---|---|---|---|---|---|
| 1777997590 | 22.78° C | 56% | 1014.2 hPa | 0 mm | 0 m/s | 597 W/m² | - |
| 1777997287 | 23.33° C | 56% | 1014.3 hPa | 0 mm | 0.45 m/s, 338° | 655 W/m² | - |
| 1777996985 | 22.78° C | 58% | 1014.3 hPa | 0 mm | 0 m/s | 627 W/m² | - |
| 1777996682 | 22.78° C | 58% | 1014.3 hPa | 0 mm | 0 m/s | 757 W/m² | - |
| 1777996377 | 22.22° C | 58% | 1014.5 hPa | 0 mm | 0 m/s | 633 W/m² | - |
| 1777996074 | 23.33° C | 58% | 1014.4 hPa | 0 mm | 0 m/s | 634 W/m² | - |
| 1777995770 | 22.78° C | 57% | 1014.7 hPa | 0 mm | 0 m/s | 593 W/m² | - |
| 1777995467 | 22.78° C | 57% | 1014.5 hPa | 0 mm | 0 m/s | 734 W/m² | - |
| 1777995164 | 22.78° C | 58% | 1014.7 hPa | 0 mm | 0 m/s | 711 W/m² | - |
| 1777994861 | 22.78° C | 58% | 1014.7 hPa | 0 mm | 0 m/s | 499 W/m² | - |
| 1777994557 | 22.22° C | 57% | 1014.7 hPa | 0 mm | 0 m/s | 679 W/m² | - |
| 1777994251 | 22.22° C | 58% | 1014.7 hPa | 0 mm | 0 m/s | 718 W/m² | - |
| 1777993949 | 21.67° C | 59% | 1014.8 hPa | 0 mm | 0 m/s | 711 W/m² | - |
| 1777993646 | 21.67° C | 59% | 1014.6 hPa | 0 mm | 0 m/s | 644 W/m² | - |
| 1777993344 | 21.11° C | 60% | 1014.6 hPa | 0 mm | 0 m/s | 527 W/m² | - |
| 1777993046 | 21.11° C | 61% | 1014.6 hPa | 0 mm | 0 m/s | 723 W/m² | - |
| 1777992742 | 21.11° C | 62% | 1014.7 hPa | 0 mm | 0 m/s | 647 W/m² | - |
| 1777992439 | 21.67° C | 60% | 1015 hPa | 0 mm | 0 m/s | 473 W/m² | - |
| 1777992138 | 21.11° C | 61% | 1014.8 hPa | 0 mm | 0 m/s | 696 W/m² | - |
| 1777991834 | 20° C | 65% | 1015 hPa | 0 mm | 0 m/s | 705 W/m² | - |
| 1777991532 | 19.44° C | 66% | 1014.6 hPa | 0 mm | 0.45 m/s, 7° | 670 W/m² | - |
| 1777991229 | 19.44° C | 65% | 1014.7 hPa | 0 mm | 0.89 m/s, 323° | 522 W/m² | - |
| 1777990926 | 18.89° C | 66% | 1014.7 hPa | 0 mm | 0 m/s | 324 W/m² | - |
| 1777990624 | 18.89° C | 68% | 1014.6 hPa | 0 mm | 0 m/s | 154 W/m² | - |
| 1777990320 | 18.89° C | 66% | 1014.6 hPa | 0 mm | 0 m/s | 140 W/m² | - |
* Rain latest hour (hover to see other rain measurements)
** Current wind speed in m/s (hover to see current wind gust speed)